This is the latest recevied weather packets stored in our database for station/object N3NDE. If no packets are shown the sender has not sent any weather packets the latest 1 day(s).
| Time | Temp. | Humidity | Pressure | Rain* | Wind** | Luminosity | Snow |
|---|---|---|---|---|---|---|---|
| 1778026028 | 8.89° C | 75% | 1012.1 hPa | 0 mm | 0.45 m/s, 110° | 134 W/m² | - |
| 1778025726 | 8.89° C | 75% | 1012.2 hPa | 0 mm | 1.34 m/s, 171° | 151 W/m² | - |
| 1778025423 | 8.89° C | 74% | 1011.9 hPa | 0 mm | 0.45 m/s, 59° | 129 W/m² | - |
| 1778025121 | 8.89° C | 73% | 1011.9 hPa | 0 mm | 0.89 m/s, 22° | 121 W/m² | - |
| 1778024817 | 9.44° C | 70% | 1012.2 hPa | 0 mm | 0.89 m/s, 155° | 143 W/m² | - |
| 1778024515 | 10° C | 72% | 1011.9 hPa | 0 mm | 0.45 m/s, 98° | 201 W/m² | - |
| 1778024211 | 10° C | 71% | 1012.1 hPa | 0 mm | 0.45 m/s, 87° | 309 W/m² | - |
| 1778023909 | 10° C | 70% | 1012.2 hPa | 0 mm | 0 m/s | 324 W/m² | - |
| 1778023606 | 10° C | 72% | 1012.3 hPa | 0 mm | 0.89 m/s, 91° | 380 W/m² | - |
| 1778023304 | 9.44° C | 74% | 1012.3 hPa | 0 mm | 0 m/s | 374 W/m² | - |
| 1778023000 | 8.89° C | 78% | 1012.2 hPa | 0 mm | 0 m/s | 179 W/m² | - |
| 1778022699 | 8.89° C | 78% | 1012.3 hPa | 0 mm | 0 m/s | 142 W/m² | - |
| 1778022397 | 8.89° C | 77% | 1012.8 hPa | 0 mm | 0.45 m/s, 54° | 152 W/m² | - |
| 1778022093 | 8.89° C | 77% | 1012.5 hPa | 0 mm | 0 m/s | 215 W/m² | - |
| 1778021789 | 8.89° C | 76% | 1012.5 hPa | 0 mm | 0.45 m/s, 84° | 215 W/m² | - |
| 1778021486 | 8.89° C | 78% | 1012.3 hPa | 0 mm | 0 m/s | 264 W/m² | - |
| 1778021182 | 8.89° C | 83% | 1012.1 hPa | 0 mm | 0 m/s | 383 W/m² | - |
| 1778020880 | 8.33° C | 84% | 1012.7 hPa | 0 mm | 0.89 m/s, 137° | 389 W/m² | - |
| 1778020577 | 7.78° C | 85% | 1012.7 hPa | 1.78 mm | 0 m/s | 279 W/m² | - |
| 1778020273 | 7.22° C | 87% | 1012.8 hPa | 1.78 mm | 0 m/s | 142 W/m² | - |
| 1778019969 | 7.22° C | 85% | 1012.5 hPa | 1.27 mm | 0 m/s | 137 W/m² | - |
| 1778019665 | 7.22° C | 84% | 1012.7 hPa | 3.05 mm | 0 m/s | 120 W/m² | - |
| 1778019362 | 7.22° C | 86% | 1012.8 hPa | 3.05 mm | 0 m/s | 79 W/m² | - |
| 1778019059 | 7.22° C | 83% | 1012.9 hPa | 1.27 mm | 0.45 m/s, 62° | 67 W/m² | - |
| 1778018756 | 7.22° C | 83% | 1012.8 hPa | 0 mm | 0.45 m/s, 101° | 78 W/m² | - |
* Rain latest hour (hover to see other rain measurements)
** Current wind speed in m/s (hover to see current wind gust speed)